Flag for Iceland Weather past 2 weeks in Reykjavik, Iceland

Now
50 °F

Clear.


Feels Like: 46 °F
Forecast: N/A
Wind: 9 mph from Northwest

Location: Reykjavik Airport

Current Time: Aug 22, 2014 at 10:23:50 PM

Latest Report: Aug 22, 2014 at 10:00 PM


Visibility: 10 mi

Pressure: 30.07 "Hg

Humidity: 76%

Dew point: 43 °F

Location of ReykjavikLocation

Historic Weather in Reykjavik — Graph

°F

Reykjavik temperature yesterday

Maximum temperature yesterday: 55 °F (at 5:00 PM)
Minimum temperature yesterday: 45 °F (at 6:00 AM)
Average temperature yesterday: 50 °F

Past Weeks' High & Low Weather Summary

 TemperatureHumidityPressure
High66 °F (Aug 11, 5:00 PM)94% (Aug 19, 6:00 AM)30.30 "Hg (Aug 19, 6:00 AM)
Low43 °F (Aug 13, 6:00 AM)44% (Aug 13, 2:00 PM)29.53 "Hg (Aug 15, 5:00 PM)
Average52 °F70%29.92 "Hg
* Reported Aug 7 9:00 PM — Aug 22 9:00 PM, Reykjavik, Weather by CustomWeather, © 2014

Note: Actual official high and low records may vary slightly from our data, if they occured in-between our weather recording intervals... More about our weather records

Advertising

Reykjavik weather history for previous 24 hours

 ConditionsComfort  
Time TempWeatherWind HumidityBarometerVisibility
9:00 PM
Aug 22
50 °FSunny.8 mph76%30.07 "Hg10 mi
8:00 PM54 °FSunny.10 mph63%30.09 "Hg10 mi
7:00 PM54 °FSunny.10 mph67%30.09 "Hg10 mi
6:00 PM54 °FSunny.12 mph72%30.09 "Hg10 mi
5:00 PM54 °FSunny.13 mph63%30.09 "Hg10 mi
4:00 PM54 °FSunny.12 mph58%30.09 "Hg10 mi
3:00 PM54 °FSunny.14 mph63%30.09 "Hg10 mi
2:00 PM54 °FSunny.12 mph63%30.12 "Hg10 mi
1:00 PM52 °FSunny.9 mph72%30.12 "Hg10 mi
12:00 PM52 °FSunny.7 mph72%30.12 "Hg10 mi
11:00 AM52 °FPassing clouds.6 mph72%30.12 "HgN/A
10:00 AM52 °FSunny.2 mph82%30.12 "Hg10 mi
9:00 AM50 °FSunny.No wind82%30.12 "Hg10 mi
8:00 AM46 °FSunny.1 mph87%30.09 "Hg10 mi
7:00 AM43 °FSunny.5 mph93%30.09 "Hg10 mi
6:00 AM43 °FSunny.3 mph93%30.09 "Hg10 mi
5:00 AM43 °FClear.6 mph87%30.09 "Hg10 mi
4:00 AM43 °FClear.5 mph87%30.09 "Hg10 mi
3:00 AM45 °FClear.5 mph87%30.09 "Hg10 mi
2:00 AM45 °FClear.6 mph87%30.09 "Hg10 mi
1:00 AM46 °FPassing clouds.3 mph82%30.09 "HgN/A
12:00 AM48 °FClear.6 mph82%30.09 "Hg10 mi
11:00 PM
Aug 21
50 °FClear.2 mph76%30.09 "Hg10 mi
10:00 PM50 °FClear.8 mph76%30.09 "Hg10 mi
Weather by CustomWeather, © 2014

See weather overviewHow to use our weather pages